www.pogodaiklimat.ru

Погода и климат >> Архив погоды >> Россия >> Крым >> Феодосия


АРХИВ ПОГОДЫ в Феодосии

Время (UTC), дата Ветер
(напр.,м/с)
 
Видим.   Явления Облачность Т
(С)
Тd
(С)
f
(%)
Тe
(С)
Тes
(С)
Комфортность P
(гПа)
Po
(гПа)
Тmin
(С)
Tmax
(С)
R
(мм)
R24
(мм)
S
(см)
03 14.05 ЮЗ 1 10 км 4/0
[Ci fib]
+9.9 +6.7 80 +9 +10 холодно 1015.8 1012.6 +9.9
06 14.05 В 1 20 км 3/0
[Ci fib]
+18.4 +11.1 62 +20 +29 тепло 1016.6 1013.5 +9.9
09 14.05 В 2 20 км 3/3 600 м
[Cu med, cong]
+21.0 +8.0 43 +23 +35 комфорт 1016.7 1013.6
12 14.05 Ю 3 20 км 4/4 600 м
[Cb calv]
+21.4 +10.4 49 +23 +30 комфорт 1016.9 1013.9
15 14.05 Ю 2 20 км 3/3 600 м
[Cu med, cong]
+19.6 +9.7 53 +21 +23 комфорт 1017.4 1014.3
18 14.05 ЮЗ 1 10 км ясно +16.8 +9.3 61 +18 +18 тепло 1018.4 1015.3 +23.0
21 14.05 СЗ 2 10 км ясно +14.4 +8.9 70 +14 +14 по сезону 1018.9 1015.8
00 15.05 З 1 10 км ясно +12.2 +8.8 80 +12 +12 по сезону 1019.6 1016.4
03 15.05 штиль 0 20 км ясно +11.0 +7.7 80 +10 +11 холодно 1019.8 1016.6 +11.0
06 15.05 В 1 10 км ясно +19.6 +11.2 58 +22 +32 комфорт 1020.7 1017.6 +11.0
09 15.05 В 4 10 км 3/3 600 м
[Cu med, cong]
+20.8 +10.8 53 +23 +31 комфорт 1020.7 1017.6
12 15.05 Ю 3 10 км 3/3 600 м
[Cu med, cong]
+23.4 +11.6 47 +26 +34 жарко 1020.1 1017.1
15 15.05 Ю 2 10 км 3/3 600 м
[Cu med, cong]
+21.2 +10.9 52 +23 +25 комфорт 1019.3 1016.2
18 15.05 Ю 2 10 км ясно +18.6 +10.9 61 +20 +20 тепло 1018.2 1015.1 +23.7
21 15.05 Ю 1 10 км ясно +17.4 +10.3 63 +18 +18 тепло 1018.3 1015.2
00 16.05 Ю 1 10 км ясно +15.4 +11.8 79 +16 +16 тепло 1017.9 1014.8
03 16.05 З 1 10 км 8/8 600 м
[Sc]
+14.0 +11.2 83 +14 +14 по сезону 1017.8 1014.7 +14.0
06 16.05 В 2 10 км ясно +20.0 +14.9 72 +23 +32 комфорт 1017.8 1014.7 +14.0
09 16.05 ЮВ 3 10 км 6/0
[Ci fib]
+22.0 +12.9 56 +25 +38 комфорт 1017.6 1014.6
12 16.05 ЮВ 3 10 км 9/0
[Ci fib]
+21.6 +12.9 58 +24 +34 комфорт 1017.5 1014.5
15 16.05 Ю 4
{10}
10 км 3/0
[Ci fib]
+19.7 +12.4 63 +21 +23 комфорт 1016.7 1013.6
18 16.05 Ю 3 10 км 3/0
[Ci fib]
+17.8 +12.8 73 +18 +18 тепло 1016.2 1013.1 +23.1
21 16.05 Ю 3 10 км ясно +17.6 +12.6 72 +18 +18 тепло 1016.7 1013.6
00 17.05 СВ 1 10 км ясно +17.4 +8.0 54 +18 +18 тепло 1016.8 1013.7
03 17.05 СЗ 1 10 км 6/0
[Ac trans Ci fib]
+14.6 +10.1 74 +15 +15 по сезону 1016.8 1013.7 +14.6
06 17.05 В 2 20 км 6/0
[Ac lent Ci fib]
+20.0 +15.7 76 +23 +29 комфорт 1017.7 1014.9 +14.6
09 17.05 В 2 20 км 8/0
[Ci]
+20.8 +14.5 67 +24 +39 комфорт 1017.3 1014.3
12 17.05 СВ 2
{10}
20 км 7 баллов +21.9 +15.3 66 +25 +30 комфорт 1017.7 1014.7
15 17.05 Ю 3 20 км 9/0
[Ci fib]
+20.4 +14.8 70 +23 +25 комфорт 1015.1 1012.1
18 17.05 Ю 4-10
{10}
10 км 8/0
[Ac trans]
+18.2 +14.8 81 +18 +18 тепло 1014.3 1011.2 +23.1
21 17.05 Ю 5-10
{11}
10 км 10/0
[Ac und]
+19.0 +13.4 70 +20 +20 тепло 1014.3 1011.2
00 18.05 Ю 5-11
{11}
10 км 8/0
[Ac trans]
+18.2 +15.5 84 +18 +18 тепло 1013.7 1010.6
03 18.05 штиль 0
{11}
10 км 9/3
[Sc diur, vesp Ac trans Ci fib]
+17.4 +12.4 72 +17 +18 тепло 1014.0 1010.9 +17.4
06 18.05 В 2 10 км 8/3 600 м
[Sc diur, vesp Ac trans Ci fib]
+22.0 +15.7 67 +26 +30 душно 1013.8 1010.8 +17.4
09 18.05 Ю 3 10 км 9/3 600 м
[Cu med, cong Ac trans Ci fib]
+23.0 +15.4 62 +27 +33 душно 1013.9 1010.9
12 18.05 Ю 6-11
{12}
10 км 9/4 600 м
[Cb calv Ac trans Ci fib]
+23.2 +14.4 58 +27 +29 душно 1014.2 1011.2
15 18.05 Ю 3
{12}
10 км 6/6 600 м
[Cb calv]
+21.4 +15.7 70 +25 +26 комфорт 1013.5 1010.5
18 18.05 Ю 3
{10}
10 км 8/8 600 м
[Cb cap]
+19.0 +16.7 87 +21 +21 комфорт 1014.6 1011.5 +25.6
21 18.05 СЗ 1 20 км ясно +17.2 +15.5 90 +18 +18 тепло 1015.0 1011.9
00 19.05 З 1 4000 м дымка ясно +15.1 +13.5 90 +16 +16 тепло 1014.8 1011.7
03 19.05 штиль 0 4000 м дымка 9/3 600 м
[Sc diur, vesp Ac trans Ci fib]
+13.7 +11.9 89 +13 +13 прохладно 1014.6 1011.5 +13.7
06 19.05 ЮВ 2 4000 м дымка 8/3 600 м
[St Ci]
+20.0 +16.3 79 +23 +29 комфорт 1015.1 1012.1 +13.7
09 19.05 В 3 10 км 8/0
[Ci]
+21.6 +13.7 61 +24 +37 комфорт 1015.1 1012.1
12 19.05 Ю 2 10 км 9/0
[Ac lent Ci]
+24.0 +13.8 53 +26 +34 жарко 1014.6 1011.6
15 19.05 Ю 3 10 км 9/0
[Ac lent Ci]
+21.8 +12.3 55 +24 +25 комфорт 1013.6 1010.6
18 19.05 Ю 2 10 км 6/6 600 м
[Sc]
+20.4 +12.0 59 +23 +23 комфорт 1013.6 1010.6 +25.4
21 19.05 Ю 2 10 км 4/4 600 м
[Sc]
+19.4 +13.2 67 +21 +21 комфорт 1013.9 1010.8
00 20.05 ЮЗ 1 10 км ясно +16.4 +12.8 79 +17 +17 тепло 1013.7 1010.6
03 20.05 Ю 1 10 км 8/6 600 м
[Cb cap Ac trans]
+16.8 +13.2 79 +18 +18 тепло 1013.1 1010.0 +15.9
06 20.05 ЮВ 1 10 км 8/5 600 м
[Cb calv Ac trans]
+20.6 +15.9 74 +25 +28 комфорт 1014.3 1011.3 +15.9
09 20.05 ЮВ 2 10 км 9/9 600 м
[Cb cap]
+22.0 +12.9 56 +25 +26 комфорт 1014.3 1011.3
12 20.05 С 5 10 км 9 баллов +21.4 +17.6 79 +26 +26 душно 1015.0 1012.0
15 20.05 З 1 20 км 4 балла +22.6 +14.4 60 +26 +28 жарко 1013.7 1010.7 1
18 20.05 З 1 10 км 4 балла +19.6 +16.2 81 +23 +23 комфорт 1016.4 1013.3 +24.1 1
21 20.05 СЗ 1 10 км ясно +17.0 +14.3 84 +18 +18 тепло 1016.4 1013.3

 

Местоположение метеостанции Феодосия (Крым, Россия): широта 45.03 долгота 35.38 высота над уровнем моря 26 м.

В архиве по умолчанию представлена погода в Феодосии за последнюю неделю. Архивные данные за месяц целиком и за предыдущие месяцы, начиная с января 2011 года, Вы можете получить, выбрав интересующий диапазон дат из раскрывающегося списка и нажав кнопку "Ввод!".


*Определитесь, кто Вы:
робот инопланетянин человек

Внимание! Время в таблицах - всемирное. Для получения местного времени необходимо прибавить поправку, которая в Феодосии равна 3 ч.

Смотрите также архив погоды в соседних городах и на ближайших метеорологических станциях:

Погода в Владиславовке (Крым, Россия) (16 км)
Погода в Карадаге (Крым, Россия) (20 км)
Погода на Мысовом (Крым, Россия) (58 км)
Погода в Белогорске (Крым, Россия) (61 км)
Погода в Нижнегорском (Крым, Россия) (69 км)
Погода в Ангарском Перевале (Крым, Россия) (87 км)
Погода в Стрелковом (Херсонская область, Украина) (87 км)
Погода в Алуште (Крым, Россия) (87 км)
Погода в Керчи (Крым, Россия) (91 км)
Погода в Симферополе город (Крым, Россия) (100 км)

Пояснения к столбцам:

Ветер - указаны скорость ветра в м/с - средняя за 10 мин, порывы в срок и между сроками (в фигурных скобках) и направление, откуда дует ветер: С - северный, СВ - северо-восточный, В - восточный, ЮВ - юго-восточный, Ю - южный, ЮЗ - юго-западный, З - западный, СЗ - северо-западный.
Видимость - горизонтальная дальность видимости в метрах или километрах. При видимости от 1 до 10 км при отсутствии осадков обычно наблюдается дымка, при ухудшении видимости до 1 км и менее - туман. В сухую погоду видимость может ухудшаться дымом, пылью или мглою.
Явления - указаны атмосферные явления, наблюдавшиеся в срок или в последний час перед сроком; фигурными скобками обозначены явления, наблюдавшиеся между сроками (за 1-3 часа до срока); квадратными скобками обозначены град или гололедные отложения с указанием их диаметра в мм.
Облачность - указаны через наклонную черту общая и нижняя облачность в баллах и высота нижней границы облаков в метрах; квадратными скобками обозначены формы облаков: Ci - перистые, Cs - перисто-слоистые, Cc - перисто-кучевые, Ac - высококучевые, As - высокослоистые, Sc - слоисто-кучевые, Ns - слоисто-дождевые, Cu - кучевые, Cb - кучево-дождевые. Подробнее классификацию облаков см. в Атласе облаков (PDF).
T - Температура воздуха - температура, измеренная на высоте 2 м над землей.
Td - Температура точки росы - температура, при понижении до которой содержащийся в воздухе водяной пар достигнет насыщения.
f - Относительная влажность воздуха - влажноcть воздуха, измеренная на высоте 2 м над землей.
Te - Эффективная температура - температура, которую ощущает одетый по сезону человек в тени. Характеристика душности погоды. При расчете учитывается влияние влажности воздуха и скорости ветра на теплоощущения человека.
Tes - Эффективная температура на солнце - температура, которую ощущает человек, с поправкой на солнечный нагрев. Характеристика знойности погоды. Зависит от высоты солнца над горизонтом, облачности и скорости ветра. Ночью, в пасмурную погоду, а также при ветре 12 м/с и более поправка равна нулю.
P - Атмосферное давление - приведенное к уровню моря атмосферное давление.
Po - Атмосферное давление - измеренное на уровне метеостанции атмосферное давление.
Tmin - Минимальная температура - минимум температуры воздуха на высоте 2 м над землей.
Tmax - Максимальная температура - максимум температуры воздуха на высоте 2 м над землей.
R - Количество осадков - Количество выпавших осадков за период времени, мм. При наведении курсора мыши на число - период времени, за который выпало указанное количество осадков.
R24 - Количество осадков - Количество выпавших осадков за 24 часа, мм.
S - Снежный покров - Высота снежного покрова, см. При наведении курсора мыши на число - состояние снежного покрова и степень покрытия местности в баллах.